User: anonymous   Login
Location: Veyrier
(46.1830°N, 6.2000°E)
Time: 13:13:06
(UTC+02:00)
Language:

Iridium 98 - Orbit

View from above orbital plane
View from above orbital plane
View from above satellite
View from above satellite

Ground track
Ground track

The orbit data is extracted from the following two-line orbital elements,

1 27451U 02031B   17083.92866191 +.00000003 +00000-0 -60591-5 0  9996
2 27451 086.3945 057.4311 0002262 085.0017 326.8255 14.34215893779206
Epoch (UTC): 24 March 2017 22:17:16
Eccentricity: 0.0002262
inclination: 86.3945°
perigee height: 776 km
apogee height: 779 km
right ascension of ascending node: 57.4311°
argument of perigee: 85.0017°
revolutions per day: 14.34215893
mean anomaly at epoch: 326.8255°
orbit number at epoch: 77920

The dashed part of the orbit path shows where the satellite is in the earth's shadow,  

DLR